DELTA 1 DEB, 10650

Orbit data source: Space-Track

DELTA 1 DEB, 10650 is space debris in LEO originally from a launch on Thu, 29 Jul 1976 UTC launched from the Air Force Western Test Range (AFWTR). Debris objects in space refer to the collection of defunct objects orbiting the Earth. Examples of debris include non-operational satellites, rocket bodies, and fragments generated from explosions, collisions, or faulty payload assembly.

Loading next visibility...
Identifier
10650, 1976-077L
Orbit
LEO
Country
Flag of USUS
Related business
Manufacturer
Unknown
Mission
Spacecraft
Bus & Motor
Unknown
Mass
Unknown
Launch date (UTC)
1976-07-29 (50 years ago)
Launch vehicle
Unknown
Launch site
Air Force Western Test Range (AFWTR)
Object type
Payload
Rocket body
Debris
Shape & HBR
Unknown shape, 0.1 m
Radar Cross Section
Medium (>0.1 m² and <1 m²)

Expand to show TLE details & history
Last TLE update: 19 hours ago

TLE from 19 hours ago
0 DELTA 1 DEB
1 10650U 76077L   26067.72627332  .00000053  00000-0  14202-2 0  9991
2 10650 102.0848 174.3665 0439049 173.9513 352.9053 11.57496501 99494
Epoch: 2026-03-08T17:25Z
TLE epoch observation values (Epoch: 2026-03-08T17:25:50.014Z)
Latitude
13.46147°
Longitude
-70.59813°
Altitude
1,519.213 km
Speed
7.26 km/s
True Right ascension
23h 49m 09s
True Declination
13° 23' 29"
Sunlit
Object was in daylight at epoch
Visualization orbit readout
Latitude
Unknown
Longitude
Unknown
Altitude
Unknown
Speed
Unknown
Apparent Right ascension
Unknown
Apparent Declination
Unknown
Sunlit
N/A
Visualization observer readout
Local Sidereal Time
16:22:48
Azimuth
Unknown
Elevation
Unknown
Doppler factor
Unknown
Orbital elements
Apogee altitude
2,236.977 km
Perigee altitude
1,512.302 km
Semi-major axis
8,252.777 km
Eccentricity
0.0439
Inclination
102.0848°
RAAN
174.3665°
Arg. of periapsis
173.9513°
True anomaly
352.24822°
Mean anomaly
352.9053°
Eccentric anomaly
352.58046°
Mean motion
2.89496 °/min
Orbital period
124.35 mins
BSTAR
0.0014202
Loading maneuver chart data...
Computing Atmospheric mass density...
Loading historical data...
Loading historical data...
Loading historical data...
Loading historical data...
Loading historical data...
Loading historical data...
Loading historical data...

Documentation

Showing up to 5 results
|